[[{"header":{"parameterUnit":"m.s-1","parameterCategory":1,"la1":30.2991,"la2":30.254,"lo1":-89.0895,"lo2":-89.0444,"dy":0.0017,"dx":0.0017,"nx":28,"ny":28,"refTime":"2025-07-03T21:00:00:Z","depth":0,"parameterNumber":2,"parameterNumberName":"U-component_of_WINDS"},"data":[0,0,0,0,0,0,0,0,0,0,0,0,0,0,0,0,0,0,0,0,0,0,0,0,0,0,0,0,0,0,0,0,0,0,0,0,0,0,0,0,0,0,0,0,0,0,0,0,0,0,0,0,0,0,0,0,0,0,1.0798,1.08,0,1.1026,1.1029,1.1032,1.1107,1.1106,1.1105,1.1104,1.1339,1.1346,1.1353,0,0,0,0,0,0,0,0,0,0,0,0,0,1.0428,1.0434,1.0798,1.08,1.0803,1.1026,1.1029,1.1032,1.1107,1.1105,1.1104,1.1103,1.1337,1.1345,1.1354,0,0,0,0,0,0,0,0,0,0,0,0,0,1.0615,1.0436,1.0797,1.0867,1.0876,1.1025,1.1029,1.1033,1.1107,1.1105,1.1104,1.1103,1.1334,1.1344,1.1355,1.1452,0,0,1.1388,1.1393,0,0,0,0,0,0,0,0,1.0605,1.0629,1.0854,1.0863,1.0873,1.1036,1.0985,1.1173,1.1107,1.1019,1.1104,1.1102,1.124,1.1258,1.1304,1.1463,1.1473,1.1389,1.1396,1.14,1.1403,0,0,0,0,0,0,0,1.0592,1.062,1.0888,1.0857,1.0869,1.0888,1.0913,1.1021,1.1135,1.1027,1.1033,1.1059,1.1244,1.1294,1.131,1.1476,1.1389,1.1398,1.1405,1.1409,1.1726,1.1728,0,0,0,0,0,0,1.0566,1.0608,1.0881,1.0895,1.0732,1.0896,1.0924,1.0985,1.1134,1.1155,1.106,1.1061,1.1276,1.1298,1.1319,1.1442,1.14,1.141,1.1416,1.1724,1.1727,1.1729,0,0,0,0,0,0,1.0558,1.059,1.0872,1.0753,1.0791,1.0904,1.0972,1.0991,1.104,1.1159,1.118,1.1089,1.1276,1.1304,1.1418,1.1451,1.1415,1.1425,1.1722,1.1725,1.1728,1.1689,0,0,0,0,0,0,1.0547,1.0587,1.0624,1.0754,1.0797,1.0966,1.0974,1.0996,1.1058,1.1062,1.1192,1.1212,1.1277,1.1402,1.1429,1.1465,1.1433,1.172,1.1723,1.1727,1.1687,1.169,1.1692,0,0,0,0,0,1.0534,1.0604,1.0625,1.0658,1.0846,1.0968,1.0993,1.1065,1.1061,1.1099,1.1176,1.1208,1.1443,1.1413,1.1444,1.1484,1.1718,1.1722,1.1727,1.1686,1.1689,1.1692,0,0,0,0,0,0,1.0475,1.0622,1.0648,1.0762,1.0852,1.098,1.1031,1.1066,1.1159,1.1159,1.1246,1.1275,1.1383,1.1445,1.1408,1.1586,1.1582,1.1593,1.1541,1.1545,1.1547,1.1529,1.1442,0,0,0,0,0,1.0476,1.0562,1.0686,1.0775,1.0819,1.0917,1.0973,1.1021,1.1118,1.1157,1.1242,1.1335,1.1431,1.1491,1.1585,1.1697,1.1727,1.1741,1.1743,1.1744,1.1752,1.1816,1.1824,1.1743,1.1743,1.1743,0,0,1.0477,1.0568,1.0618,1.0766,1.0841,1.0929,1.0949,1.1041,1.1108,1.1171,1.1284,1.135,1.146,1.1573,1.1628,1.1629,1.1781,1.1749,1.175,1.1757,1.1822,1.1829,1.1836,1.1746,1.1746,1.1745,0,0,1.0525,1.0603,1.0685,1.0761,1.0875,1.094,1.0959,1.1083,1.1129,1.1244,1.1294,1.1375,1.1537,1.1613,1.1673,1.1751,1.1784,1.1779,1.1791,1.1852,1.1859,1.1865,1.1892,1.1901,1.1787,1.1787,1.1787,0,1.0513,1.0647,1.0723,1.0814,1.0877,1.0939,1.1023,1.1093,1.1232,1.1275,1.1274,1.1479,1.1558,1.169,1.1709,1.1756,1.1781,1.1765,1.1851,1.1858,1.1865,1.1893,1.1903,1.1786,1.1786,1.1786,1.1786,0,1.0627,1.0719,1.0772,1.0904,1.0975,1.1061,1.1151,1.1213,1.1255,1.1321,1.1437,1.1534,1.1649,1.1684,1.1726,1.1823,1.182,1.1834,1.1832,1.187,1.1897,1.1909,1.1784,1.1784,1.1785,1.1785,0,0,1.0643,1.0817,1.0835,1.0896,1.1027,1.11,1.119,1.1302,1.1354,1.1448,1.1526,1.1662,1.1676,1.1744,1.1796,1.185,1.1906,1.1859,1.1863,1.1864,1.2019,1.2006,1.2017,1.1929,1.1931,1.1933,1.2009,0,1.0707,1.087,1.0942,1.1072,1.1159,1.1219,1.1298,1.1387,1.1451,1.1534,1.1605,1.17,1.1712,1.1754,1.181,1.1887,1.1938,1.1883,1.2003,1.2006,1.1972,1.2031,1.2019,1.2086,1.202,1.2022,1.2024,0,1.0804,1.0898,1.1037,1.1158,1.1197,1.1266,1.1375,1.1454,1.1557,1.16,1.1676,1.1725,1.1823,1.1815,1.1951,1.1911,1.1965,1.2011,1.2015,1.2028,1.2016,1.2046,1.2109,1.2118,1.2041,1.204,1.2039,0,1.0801,1.0963,1.1067,1.1118,1.1261,1.1309,1.1371,1.1472,1.1535,1.1631,1.1673,1.1778,1.1836,1.1917,1.1994,1.1981,1.2123,1.2121,1.2162,1.216,1.2188,1.2185,1.226,1.2223,1.2223,1.2223,1.2223,0,1.0865,1.0948,1.1068,1.1132,1.1226,1.1309,1.14,1.1467,1.1557,1.1635,1.1695,1.1767,1.1865,1.195,1.2011,1.2115,1.2141,1.2178,1.2193,1.2173,1.2168,1.2208,1.2205,1.2226,1.2225,1.2225,1.2224,0,1.0878,1.0962,1.1079,1.1206,1.124,1.1304,1.1413,1.1477,1.1544,1.1643,1.1671,1.1777,1.188,1.1965,1.2101,1.2142,1.225,1.2268,1.2215,1.2223,1.2258,1.2254,1.2361,1.238,1.2331,1.2331,1.2331,0,1.0912,1.0977,1.1111,1.1168,1.1229,1.132,1.1384,1.1468,1.1533,1.1656,1.1706,1.1814,1.1904,1.2067,1.2156,1.2261,1.2281,1.2312,1.2297,1.2274,1.2281,1.2276,1.2283,1.2312,1.2313,1.2313,1.2313,0,1.0965,1.1004,1.1094,1.12,1.1275,1.1363,1.1451,1.1495,1.1595,1.1665,1.1772,1.1842,1.1981,1.2087,1.2201,1.2266,1.2306,1.2317,1.2332,1.2311,1.2277,1.2295,1.2218,1.2314,1.2314,1.2313,1.2313,1.2313,1.099,1.1051,1.1154,1.1254,1.1329,1.1411,1.1478,1.1554,1.1644,1.1763,1.1808,1.1916,1.2019,1.2176,1.2242,1.2329,1.2333,1.2355,1.236,1.2364,1.2361,1.2264,1.235,1.235,1.235,1.235,1.2351,0,1.1046,1.1116,1.1206,1.1328,1.1407,1.1438,1.1538,1.1601,1.1696,1.1788,1.1876,1.1999,1.2103,1.22,1.2309,1.236,1.2381,1.2385,1.2382,1.2397,1.2351,1.2327,1.2366,1.2366,1.2366,1.2366,1.2366,1.2366,1.1084,1.1188,1.1239,1.1381,1.1451,1.1558,1.1613,1.1689,1.1763,1.1896,1.1983,1.2046,1.2141,1.2257,1.2354,1.238,1.2417,1.2416,1.2447,1.2403,1.24,1.2397,1.2375,1.2424,1.2424,1.2486,1.2486,1.2487]},{"header":{"parameterUnit":"m.s-1","parameterCategory":1,"la1":30.2991,"la2":30.254,"lo1":-89.0895,"lo2":-89.0444,"dy":0.0017,"dx":0.0017,"nx":28,"ny":28,"refTime":"2025-07-03T21:00:00:Z","depth":0,"parameterNumber":3,"parameterNumberName":"V-component_of_WINDS"},"data":[0,0,0,0,0,0,0,0,0,0,0,0,0,0,0,0,0,0,0,0,0,0,0,0,0,0,0,0,0,0,0,0,0,0,0,0,0,0,0,0,0,0,0,0,0,0,0,0,0,0,0,0,0,0,0,0,0,0,1.4099,1.4099,0,1.4055,1.4055,1.4054,1.3966,1.3964,1.3962,1.3961,1.3916,1.3916,1.3917,0,0,0,0,0,0,0,0,0,0,0,0,0,1.4105,1.4106,1.4099,1.4099,1.4098,1.4056,1.4055,1.4054,1.3966,1.3964,1.3962,1.396,1.3916,1.3916,1.3917,0,0,0,0,0,0,0,0,0,0,0,0,0,1.4086,1.4106,1.4099,1.4049,1.4044,1.4056,1.4055,1.4054,1.3966,1.3964,1.3961,1.3959,1.3915,1.3916,1.3917,1.3974,0,0,1.3919,1.3919,0,0,0,0,0,0,0,0,1.4088,1.4086,1.4057,1.4053,1.4047,1.4013,1.404,1.4027,1.3967,1.3996,1.396,1.3957,1.395,1.3948,1.3946,1.3972,1.397,1.3919,1.3919,1.392,1.392,0,0,0,0,0,0,0,1.4089,1.4088,1.4082,1.4057,1.4051,1.4028,1.4023,1.4038,1.3989,1.3993,1.3987,1.3983,1.3947,1.3945,1.3944,1.3969,1.3919,1.3919,1.392,1.392,1.4037,1.404,0,0,0,0,0,0,1.4098,1.4089,1.4083,1.4081,1.4061,1.403,1.4024,1.4027,1.3988,1.398,1.3985,1.3979,1.3945,1.3943,1.3942,1.4004,1.392,1.392,1.3921,1.4034,1.4038,1.4041,0,0,0,0,0,0,1.4098,1.4098,1.4085,1.4083,1.408,1.4033,1.4037,1.4027,1.4025,1.3982,1.3973,1.3992,1.3943,1.3941,1.3966,1.4002,1.392,1.3921,1.4031,1.4035,1.4039,1.4131,0,0,0,0,0,0,1.4099,1.4099,1.412,1.4084,1.408,1.4111,1.4039,1.4028,1.4027,1.4018,1.3986,1.3978,1.3941,1.3965,1.3967,1.4001,1.3922,1.4028,1.4033,1.4038,1.4125,1.4138,1.4149,0,0,0,0,0,1.4099,1.4149,1.4122,1.4122,1.4106,1.4113,1.4111,1.4067,1.403,1.4051,1.4023,1.3979,1.3998,1.3969,1.3969,1.4005,1.4025,1.4032,1.4038,1.4119,1.4136,1.4149,0,0,0,0,0,0,1.4191,1.4143,1.4113,1.4152,1.4137,1.4098,1.4123,1.4085,1.408,1.4073,1.4018,1.4012,1.4043,1.4026,1.3995,1.4057,1.4004,1.4011,1.4067,1.4081,1.4093,1.4097,1.3922,0,0,0,0,0,1.4216,1.4225,1.4183,1.4221,1.4215,1.4171,1.4172,1.4139,1.4122,1.4115,1.4088,1.4073,1.4074,1.4077,1.4077,1.4122,1.4113,1.4146,1.4159,1.4169,1.4175,1.4196,1.421,1.4061,1.4061,1.4061,0,0,1.4267,1.4242,1.4251,1.4239,1.4224,1.4234,1.4166,1.4181,1.4187,1.4117,1.4138,1.4119,1.4097,1.4132,1.4146,1.4119,1.4214,1.4177,1.4185,1.4186,1.4203,1.4217,1.423,1.4065,1.4064,1.4063,0,0,1.4365,1.4348,1.4377,1.4363,1.434,1.431,1.4317,1.4283,1.4267,1.4287,1.4234,1.4241,1.4246,1.4233,1.4226,1.4318,1.4277,1.4319,1.4383,1.4404,1.4415,1.4425,1.4457,1.4469,1.4325,1.4326,1.4326,0,1.4432,1.4446,1.4397,1.4414,1.441,1.4346,1.4375,1.4363,1.4342,1.434,1.4309,1.4313,1.4294,1.4324,1.4346,1.4344,1.4349,1.4322,1.4418,1.4427,1.4436,1.4465,1.4477,1.4331,1.433,1.433,1.4329,0,1.4528,1.4538,1.4564,1.4544,1.4543,1.4566,1.452,1.4524,1.4491,1.4464,1.4485,1.446,1.4452,1.4457,1.4426,1.4482,1.4466,1.4428,1.4374,1.4456,1.4482,1.4493,1.4338,1.4336,1.4335,1.4334,0,0,1.4683,1.4635,1.4646,1.4635,1.4604,1.4611,1.463,1.4622,1.4626,1.4613,1.4627,1.4632,1.4596,1.4589,1.4555,1.4573,1.4645,1.4532,1.4531,1.4553,1.4703,1.4732,1.4746,1.4618,1.462,1.4621,1.4705,0,1.4774,1.4805,1.4761,1.4801,1.4809,1.4747,1.4764,1.4747,1.4721,1.4724,1.4695,1.4699,1.4652,1.4647,1.4662,1.4633,1.4674,1.4626,1.4629,1.463,1.4636,1.476,1.479,1.4871,1.4715,1.4717,1.4718,0,1.4884,1.4876,1.4916,1.4881,1.4883,1.4899,1.4887,1.4891,1.4869,1.4849,1.484,1.4799,1.4815,1.4763,1.4783,1.4751,1.4749,1.4735,1.4737,1.4735,1.4679,1.476,1.4895,1.4907,1.4734,1.4733,1.4731,0,1.4992,1.4991,1.5014,1.5007,1.4967,1.4979,1.4963,1.4939,1.4936,1.4926,1.4923,1.4916,1.4911,1.4905,1.4862,1.4829,1.4887,1.4832,1.487,1.4871,1.4884,1.4884,1.502,1.4885,1.4885,1.4885,1.4884,0,1.5098,1.5125,1.5062,1.5077,1.5104,1.5053,1.5082,1.506,1.5038,1.5047,1.4993,1.5002,1.4946,1.4948,1.4915,1.4935,1.4934,1.4917,1.4908,1.4922,1.4924,1.492,1.4913,1.4888,1.4887,1.4886,1.4886,0,1.5223,1.5182,1.5203,1.5163,1.5154,1.5176,1.5141,1.5153,1.5123,1.5134,1.5134,1.5088,1.5088,1.5045,1.5036,1.5013,1.5047,1.5028,1.5055,1.5048,1.5088,1.5085,1.5226,1.5241,1.5097,1.5099,1.51,0,1.5293,1.5312,1.5273,1.5275,1.5261,1.5265,1.5262,1.5212,1.521,1.5186,1.52,1.5195,1.5189,1.5191,1.5157,1.5149,1.5129,1.5179,1.5127,1.514,1.5128,1.5127,1.5128,1.519,1.5192,1.5193,1.5194,0,1.542,1.5399,1.5396,1.5386,1.5384,1.5374,1.536,1.5365,1.5309,1.5311,1.531,1.5305,1.5295,1.5291,1.5276,1.5258,1.5217,1.5211,1.5219,1.5233,1.5247,1.5239,1.5084,1.5208,1.5206,1.5205,1.5205,1.5204,1.5519,1.5532,1.5507,1.5506,1.549,1.5478,1.5486,1.5457,1.5456,1.5444,1.5414,1.5418,1.5393,1.5369,1.5355,1.5357,1.5331,1.5344,1.5346,1.535,1.5357,1.5247,1.5354,1.5353,1.5353,1.5353,1.5352,0,1.5643,1.5623,1.5622,1.5604,1.5603,1.5564,1.5546,1.5547,1.5551,1.5532,1.5526,1.5524,1.5519,1.5484,1.5474,1.5482,1.5463,1.5481,1.548,1.5476,1.5381,1.5374,1.5497,1.5497,1.5497,1.5497,1.5497,1.5497,1.5707,1.5727,1.5703,1.5714,1.5694,1.5697,1.569,1.5678,1.5662,1.5662,1.5658,1.5634,1.5608,1.5596,1.5589,1.5579,1.5577,1.5602,1.5586,1.5497,1.5483,1.547,1.5463,1.5603,1.5603,1.568,1.5681,1.5682]}]]